880  
ASUS44 KMEG 190210  
RWRMEG  
MEMPHIS CWA HOURLY WEATHER ROUNDUP  
NATIONAL WEATHER SERVICE MEMPHIS TN  
900 PM CDT MON JUN 18 2018  
   
..WEST TENNESSEE
 
 
 
CITY SKY/WX TMP DP RH WIND PRES REMARKS
 
MEMPHIS INTL FAIR 82 69 64 S7 30.06R  
NWS MEMPHIS N/A 83 N/A N/A MISG N/A  
JACKSON FAIR 80 73 79 S5 30.05S  
COVINGTON PTCLDY 84 70 61 S7 30.04S  
BOLIVAR CLEAR 79 72 78 CALM 30.06S  
LEXINGTON CLEAR 77 73 88 CALM 30.05S  
SELMER CLEAR 79 72 78 CALM 30.06S  
DYERSBURG FAIR 83 71 67 CALM 30.04S  
PARIS CLEAR 79 73 83 CALM 30.05R  
HUNTINGDON CLEAR 81 73 78 S5 30.04S  
 
   
..EASTERN ARKANSAS
 
 
 
CITY SKY/WX TMP DP RH WIND PRES REMARKS
 
JONESBORO FAIR 85 72 65 SW16 30.02R HX 91  
WEST MEMPHIS FAIR 83 72 69 S10 30.04S  
BATESVILLE CLEAR 83 70 64 S9 30.03S  
NEWPORT FAIR 83 70 64 S14 30.03R  
WALNUT RIDGE N/A 84 70 62 S8 30.01R  
BLYTHEVILLE FAIR 85 67 54 S6 30.02F  
SEARCY FAIR 78 70 76 S5 30.04S  
STUTTGART FAIR 83 66 56 S10 30.06R  
PINE BLUFF FAIR 79 67 66 S8 30.05S  
MONTICELLO FAIR 80 70 71 S5 30.06F  
 
   
..NORTH MISSISSIPPI
 
 
 
CITY SKY/WX TMP DP RH WIND PRES REMARKS
 
TUPELO FAIR 82 69 64 CALM 30.07S  
OXFORD FAIR 77 68 73 CALM 30.09S  
BATESVILLE FAIR 77 72 83 CALM 30.06F  
TUNICA N/A 77 70 78 S5 30.06F  
CLARKSDALE CLEAR 84 73 70 S7 30.06S HX 91  
CORINTH N/A 79 68 69 CALM 30.06S  
GREENWOOD FAIR 77 70 79 SW6 30.08S  
COLUMBUS FAIR 73 67 81 CALM 30.07S  
STARKVILLE FAIR 77 70 78 SW3 30.10R  
GOLDEN TRIANGL FAIR 80 71 74 CALM 30.08S  
 
   
..SOUTHEAST MISSOURI
 
 
 
CITY SKY/WX TMP DP RH WIND PRES REMARKS
 
KENNETT FAIR 84 68 58 S6 30.00R  
MALDEN FAIR 84 68 58 SW5 30.02R  
WEST PLAINS CLEAR 82 68 62 S6 30.05R  
POPLAR BLUFF FAIR 84 71 65 S7 30.00R  
CAPE GIRARDEAU FAIR 82 69 64 S8 29.99R  
 
   
..NORTHWEST ALABAMA
 
 
 
CITY SKY/WX TMP DP RH WIND PRES REMARKS
 
MUSCLE SHOALS FAIR 80 71 74 CALM 30.09R  
 
   
..MIDDLE TENNESSEE
 
 
 
CITY SKY/WX TMP DP RH WIND PRES REMARKS
 
NASHVILLE PTCLDY 79 72 79 CALM 30.06R  
CLARKSVILLE FAIR 83 71 67 SW6 30.04S  
DICKSON CLEAR 79 73 83 VRB3 30.07S  
COLUMBIA CLEAR 81 81 100 CALM 30.06S HX 91  
LEWISBURG PTCLDY 75 70 83 CALM 30.08R  
 
   
..WESTERN KENTUCKY
 
 
 
CITY SKY/WX TMP DP RH WIND PRES REMARKS
 
PADUCAH FAIR 83 70 64 S3 30.01R  
FORT CAMPBELL FAIR 83 73 72 S6 30.04S  
 
   
..CENTRAL ARKANSAS
 
 
 
CITY SKY/WX TMP DP RH WIND PRES REMARKS
 
LITTLE ROCK PTCLDY 78 71 79 S7 30.03S  
 
SKY/WX REPORTED AS FAIR MEANS FEW OR NO CLOUDS BELOW  
12 THOUSAND FEET.  
 
 
 
CLICK HERE TO GO TO PREVIOUS BULLETINS.

The Nexlab TN Page
The Nexlab MS Page
The Nexlab AR Page Main Text Page